KUZGTU 1 (RS47S)

Last updated on Thu Oct 30 2025 00:03:10 GMT+0000 (Coordinated Universal Time)

1 57217U 23091AV 25302.47815575 .00015682 00000+0 66126-3 0 9996 2 57217 97.5411 0.2182 0012677 182.7224 177.3946 15.23329283129178
UTC large
Height (km)
Speed (km/s)
/
Latitude / Longitude
Inclination (degrees)
Orbital Period (minutes)
Azimuth
Elevation
Range (km)
Doppler Factor

Next 0 passes for location: London (51.5072 / 0.1276)

Sorry there are no passes over London.